Accueil
METAR-TAF:

METAR-TAF

Aéroports :

Aéroport de Morlaix Ploujean

Morlaix, France

latitude: 48-36N, longitude: 3-49W, altitude: 84 m

Observation

Le bulletin a été fait il y a 26 minutes, à 17:30 UTC
Vent 5 kt de sud-ouest
Température 11°C
Humidité 94%
Pression 1012 hPa
Visibilité 10 km ou plus
Quelques nuages à une hauteur de 3600 ft
Ciel couvert à une hauteur de 24000 ft

METAR: LFRU 271730Z AUTO 22005KT 9999 FEW036 OVC240 11/10 Q1012

Heure: 18:56 (17:56 UTC)


TAF: absent

Observations et prévisions météorologiques de plus de 4000 aéroports (messages METAR et TAF).

Les stations disponibles sont représentées par des disques jaunes et rouges sur la carte.

Passer la souris dessus pour voir le nom de la station.

Cliquer dessus pour voir les observations et prévisions météorologiques.

Pour changer de carte: cliquez sur les boutons verts avec une croix noire pour zoomer, sur le bouton vert avec un tiret pour effectuer un zoom arrière, ou sur les flèches vertes pour les cartes adjacentes.


METAR-TAF: